Location: Unspecified
(0.0000°N, 0.0000°E)
Time: 21:55:12
(UTC+00:00)

Tiros 1 - Pass Details

Date: 23 October 2021
Orbit: 630 x 664 km, 48.4° (Epoch: 04 December)

Event Time Altitude Azimuth Distance (km) Brightness Sun altitude
Rises 18:53:57 0° 326° (NW) 2,903 10.8 -17.0°
Reaches altitude 10° 18:56:17 10° 328° (NNW) 1,995 9.9 -17.6°
Maximum altitude 19:00:50 69° 51° (NE) 672 7.0 -18.7°
Enters shadow 19:03:07 29° 128° (SE) 1,156 8.1 -19.3°
Drops below altitude 10° 19:05:25 10° 134° (SE) 2,001 - -19.8°
Sets 19:07:45 0° 137° (SE) 2,912 - -20.4°
